Volver al catálogo

COSMOS 1275 DEB

ActivoPO
NORAD 42161·DEBRIS·🇷🇺 Russia

Lanzado Jun 4, 1981 desde Plesetsk Cosmodrome

Loading…

Próximos Pases (próximas 24 horas)

TLE

EnvejeciendoSource: Space-Track

Época: Sep 10, 2026, 14:59 UTC

1 42161U 81053RZ  26253.62462381  .00001521  00000-0  10473-2 0  9997
2 42161  82.9283  20.5871 0052205 137.1241 223.4017 13.98054525 67277

Sigue COSMOS 1275 DEB en tiempo real con AllMySat

Download on the App Store